Location: Bilsen
(53.7722°N, 9.8765°E)
Time: 11:25:42
(UTC+00:00)

ATLAS CENTAUR R/B - Pass Details

Date: 18 February 2020
Orbit: 466 x 681 km, 64.7° (Epoch: 05 April)

Event Time Altitude Azimuth Distance (km) Brightness Sun altitude
Exits shadow 05:22:29 16° 268° (W) 1,660 3.1 -11.3°
Maximum altitude 05:25:42 36° 329° (NNW) 969 2.3 -10.8°
Drops below altitude 10° 05:29:43 10° 38° (NE) 1,909 4.5 -10.2°
Sets 05:32:01 0° 47° (NE) 2,771 5.5 -9.9°
